Погода в Теше

Россия / Нижегородская область     55°30′56″N   42°49′03″E
темп.,
°C
ветер,
м/с
пор.,
м/с
влажн.,
%
обл.,
%
осадки,
мм/ч
давл.,
гПа
погр.,
м
19 апреля, пн
пн1900:00+6всв4118371 0.0 1024593
03:00+4всв41184100 0.0 1024483
06:00+3всв51277100 0.0 1024532
09:00+5всв51062100 0.0 1025674
12:00+8в6949100 0.0 10251259
15:00+9в6943100 0.0 10251548
18:00+7в51146100 0.0 10251531
21:00+5в61255100 0.0 1025936
20 апреля, вт
вт2000:00+4в51255100 0.0 1025794
03:00+3в51359100 0.0 1025628
06:00+2в51362100 0.0 1025649
09:00+4в61364100 0.0 1025835
12:00+4вюв61280100 0.1 1024972
15:00+5вюв51477100 1.0 10231095
18:00+7вюв51363100 0.0 10201074
21:00+7вюв71654100 0.0 10181108
21 апреля, ср
ср2100:00+6вюв81759100 0.1 10151106
03:00+4вюв81989100 4.8 10121149
06:00+4юв71789100 5.7 10101085
09:00+5юв71788100 5.9 10091083
12:00+6юв81888100 0.1 10081225
15:00+8ю71579100 0.2 10081551
18:00+6ююз71380100 0.1 10121307
21:00+6ююз51281100 0.1 10151254
22 апреля, чт
чт2200:00+6ю3107784 0.0 1016502
03:00+5ююв399177 0.0 1017342
06:00+6ю3109181 0.3 1017416
09:00+9ююз6117193 0.3 10181259
12:00+8ююз497832 0.1 10201028
15:00+13ююз585583 0.3 10191787
18:00+11ююз38725 0.3 1020832
21:00+7ююв3109387 0.3 1022239
23 апреля, пт
пт2300:00+7ю311905 0.0 1022266
03:00+6ююв3118984 0.0 1022222
06:00+7ююв3108197 0.0 1022253
09:00+11ю41063100 0.0 1022433
12:00+16ю563999 0.0 10212371
15:00+16ю364187 0.0 10192131
18:00+13юв4955100 0.0 1019545
21:00+11ююв4126694 0.0 1018499